| time (UTC) | temp F | wind direction | speed knots | gust knots | rain 1hr in | rain 24hr in | rain mn in | humidity % | barometer mb |
| 20260505000302 | 57 | 226 | 0.0 | 0.0 | 0.00 | 0.00 | 0.00 | 62 | 1016.6 |
| 20260504235304 | 57 | 226 | 0.0 | 0.0 | 0.00 | 0.00 | 0.00 | 63 | 1016.5 |
| 20260504234801 | 57 | 226 | 0.0 | 0.0 | 0.00 | 0.00 | 0.00 | 62 | 1016.5 |
| 20260504234302 | 57 | 226 | 0.0 | 0.0 | 0.00 | 0.00 | 0.00 | 62 | 1016.7 |
| 20260504233802 | 57 | 226 | 0.0 | 0.0 | 0.00 | 0.00 | 0.00 | 62 | 1016.7 |
| 20260504233303 | 57 | 230 | 0.0 | 0.0 | 0.00 | 0.00 | 0.00 | 62 | 1016.7 |
| 20260504232802 | 57 | 230 | 0.0 | 0.0 | 0.00 | 0.00 | 0.00 | 61 | 1016.8 |
| 20260504232303 | 57 | 230 | 0.0 | 0.0 | 0.00 | 0.00 | 0.00 | 61 | 1016.8 |
| 20260504231802 | 58 | 230 | 0.0 | 0.0 | 0.00 | 0.00 | 0.00 | 61 | 1016.8 |
| 20260504231301 | 58 | 230 | 0.0 | 0.0 | 0.00 | 0.00 | 0.00 | 60 | 1016.9 |
| 20260504230303 | 58 | 228 | 0.0 | 0.0 | 0.00 | 0.00 | 0.00 | 60 | 1016.9 |
| 20260504225802 | 58 | 228 | 0.0 | 0.0 | 0.00 | 0.00 | 0.00 | 59 | 1017.1 |
| 20260504225304 | 58 | 229 | 0.0 | 0.0 | 0.00 | 0.00 | 0.00 | 59 | 1017.1 |
| 20260504224802 | 58 | 230 | 0.0 | 0.0 | 0.00 | 0.00 | 0.00 | 59 | 1017.1 |
| 20260504224301 | 58 | 230 | 0.0 | 0.0 | 0.00 | 0.00 | 0.00 | 58 | 1017.1 |
| 20260504223802 | 58 | 230 | 0.0 | 0.0 | 0.00 | 0.00 | 0.00 | 57 | 1017.1 |
| 20260504223302 | 58 | 230 | 0.0 | 0.0 | 0.00 | 0.00 | 0.00 | 57 | 1017.1 |
| 20260504222801 | 58 | 234 | 0.0 | 0.0 | 0.00 | 0.00 | 0.00 | 57 | 1017.2 |
| 20260504222304 | 58 | 233 | 0.0 | 0.0 | 0.00 | 0.00 | 0.00 | 56 | 1017.2 |
| 20260504221801 | 59 | 230 | 0.0 | 0.0 | 0.00 | 0.00 | 0.00 | 56 | 1017.2 |
| 20260504221302 | 59 | 231 | 0.0 | 0.0 | 0.00 | 0.00 | 0.00 | 56 | 1017.3 |
| 20260504220802 | 60 | 235 | 0.0 | 0.0 | 0.00 | 0.00 | 0.00 | 55 | 1017.3 |
| 20260504220302 | 60 | 227 | 0.0 | 0.0 | 0.00 | 0.00 | 0.00 | 55 | 1017.3 |
| 20260504215802 | 60 | 231 | 0.0 | 0.0 | 0.00 | 0.00 | 0.00 | 55 | 1017.3 |
| 20260504214801 | 60 | 231 | 0.0 | 0.0 | 0.00 | 0.00 | 0.00 | 55 | 1017.3 |
| 20260504214303 | 60 | 231 | 0.0 | 0.0 | 0.00 | 0.00 | 0.00 | 55 | 1017.5 |
| 20260504213801 | 60 | 231 | 0.0 | 0.0 | 0.00 | 0.00 | 0.00 | 55 | 1017.5 |
| 20260504213302 | 60 | 232 | 0.0 | 0.0 | 0.00 | 0.00 | 0.00 | 55 | 1017.5 |
| 20260504212802 | 60 | 232 | 0.0 | 0.0 | 0.00 | 0.00 | 0.00 | 55 | 1017.5 |
| 20260504212303 | 60 | 232 | 0.0 | 0.0 | 0.00 | 0.00 | 0.00 | 55 | 1017.5 |
| 20260504211802 | 60 | 234 | 0.0 | 0.0 | 0.00 | 0.00 | 0.00 | 55 | 1017.5 |
| 20260504211302 | 60 | 225 | 0.0 | 0.0 | 0.00 | 0.00 | 0.00 | 55 | 1017.6 |
| 20260504210802 | 60 | 224 | 0.0 | 0.0 | 0.00 | 0.00 | 0.00 | 56 | 1017.6 |
| 20260504210302 | 60 | 224 | 0.0 | 0.0 | 0.00 | 0.00 | 0.00 | 55 | 1017.6 |
| 20260504205803 | 60 | 224 | 0.0 | 0.0 | 0.00 | 0.00 | 0.00 | 55 | 1017.5 |
| 20260504204802 | 61 | 224 | 0.0 | 0.0 | 0.00 | 0.00 | 0.00 | 55 | 1017.5 |
| 20260504204301 | 61 | 223 | 0.0 | 0.0 | 0.00 | 0.00 | 0.00 | 54 | 1017.5 |
| 20260504203802 | 61 | 223 | 0.0 | 0.0 | 0.00 | 0.00 | 0.00 | 54 | 1017.5 |
| 20260504203302 | 62 | 223 | 0.0 | 0.0 | 0.00 | 0.00 | 0.00 | 53 | 1017.5 |
| 20260504202802 | 62 | 223 | 0.0 | 0.0 | 0.00 | 0.00 | 0.00 | 52 | 1017.3 |
| 20260504202304 | 63 | 223 | 0.0 | 0.0 | 0.00 | 0.00 | 0.00 | 51 | 1017.3 |
| 20260504201802 | 63 | 230 | 0.0 | 0.0 | 0.00 | 0.00 | 0.00 | 50 | 1017.3 |
| 20260504201302 | 64 | 253 | 0.0 | 0.0 | 0.00 | 0.00 | 0.00 | 49 | 1017.3 |
| 20260504200302 | 64 | 270 | 0.9 | 0.0 | 0.00 | 0.00 | 0.00 | 48 | 1017.3 |
| 20260504194802 | 65 | 208 | 0.0 | 6.1 | 0.00 | 0.00 | 0.00 | 48 | 1017.1 |
| 20260504193802 | 65 | 210 | 0.0 | 0.0 | 0.00 | 0.00 | 0.00 | 47 | 1017.0 |
| 20260504193303 | 65 | 200 | 0.0 | 0.0 | 0.00 | 0.00 | 0.00 | 47 | 1017.0 |
| 20260504192802 | 65 | 202 | 0.0 | 4.3 | 0.00 | 0.00 | 0.00 | 46 | 1017.0 |
| 20260504192304 | 66 | 201 | 1.7 | 0.0 | 0.00 | 0.00 | 0.00 | 46 | 1017.0 |
| 20260504191801 | 66 | 206 | 1.7 | 5.2 | 0.00 | 0.00 | 0.00 | 45 | 1017.0 |
| 20260504191302 | 66 | 200 | 1.7 | 4.3 | 0.00 | 0.00 | 0.00 | 45 | 1016.8 |
| 20260504190803 | 66 | 200 | 1.7 | 6.1 | 0.00 | 0.00 | 0.00 | 45 | 1016.8 |
| 20260504190307 | 66 | 207 | 1.7 | 6.1 | 0.00 | 0.00 | 0.00 | 46 | 1016.8 |
| 20260504185802 | 66 | 195 | 1.7 | 5.2 | 0.00 | 0.00 | 0.00 | 45 | 1016.7 |
| 20260504185304 | 67 | 213 | 1.7 | 0.9 | 0.00 | 0.00 | 0.00 | 45 | 1016.7 |
| 20260504184802 | 67 | 216 | 1.7 | 6.1 | 0.00 | 0.00 | 0.00 | 45 | 1016.7 |
| 20260504184304 | 67 | 209 | 0.9 | 6.1 | 0.00 | 0.00 | 0.00 | 44 | 1016.7 |
| 20260504183802 | 67 | 198 | 0.9 | 6.1 | 0.00 | 0.00 | 0.00 | 44 | 1016.7 |
| 20260504183302 | 68 | 193 | 1.7 | 5.2 | 0.00 | 0.00 | 0.00 | 44 | 1016.7 |
| 20260504182802 | 68 | 212 | 1.7 | 8.7 | 0.00 | 0.00 | 0.00 | 43 | 1016.5 |
| 20260504181802 | 68 | 157 | 1.7 | 7.8 | 0.00 | 0.00 | 0.00 | 43 | 1016.5 |
| 20260504181302 | 69 | 203 | 1.7 | 7.0 | 0.00 | 0.00 | 0.00 | 44 | 1016.4 |
| 20260504180802 | 69 | 221 | 1.7 | 0.0 | 0.00 | 0.00 | 0.00 | 43 | 1016.4 |
| 20260504180301 | 69 | 221 | 1.7 | 0.0 | 0.00 | 0.00 | 0.00 | 43 | 1016.4 |
| 20260504175803 | 69 | 221 | 1.7 | 0.0 | 0.00 | 0.00 | 0.00 | 43 | 1016.3 |
| 20260504175304 | 69 | 216 | 1.7 | 4.3 | 0.00 | 0.00 | 0.00 | 43 | 1016.3 |
| 20260504174804 | 69 | 206 | 1.7 | 7.0 | 0.00 | 0.00 | 0.00 | 44 | 1016.3 |
| 20260504174302 | 69 | 211 | 0.9 | 7.8 | 0.00 | 0.00 | 0.00 | 44 | 1016.2 |
| 20260504173302 | 69 | 216 | 0.0 | 4.3 | 0.00 | 0.00 | 0.00 | 43 | 1016.2 |
| 20260504172802 | 70 | 193 | 0.0 | 6.1 | 0.00 | 0.00 | 0.00 | 43 | 1016.1 |
| 20260504172304 | 70 | 211 | 0.9 | 0.0 | 0.00 | 0.00 | 0.00 | 42 | 1016.1 |
| 20260504171805 | 71 | 199 | 0.9 | 0.0 | 0.00 | 0.00 | 0.00 | 42 | 1016.1 |
| 20260504171305 | 71 | 203 | 1.7 | 4.3 | 0.00 | 0.00 | 0.00 | 41 | 1016.4 |
| 20260504170805 | 71 | 199 | 1.7 | 6.1 | 0.00 | 0.00 | 0.00 | 40 | 1016.4 |
| 20260504170302 | 72 | 208 | 1.7 | 12.2 | 0.00 | 0.00 | 0.00 | 40 | 1016.4 |
| 20260504150805 | 77 | 169 | 0.9 | 7.0 | 0.00 | 0.00 | 0.00 | 33 | 1016.0 |
| 20260504150304 | 77 | 159 | 0.9 | 2.6 | 0.00 | 0.00 | 0.00 | 32 | 1016.0 |
| 20260504140808 | 78 | 222 | 0.9 | 8.7 | 0.00 | 0.00 | 0.00 | 30 | 1016.3 |
| 20260504130805 | 76 | 84 | 1.7 | 10.4 | 0.00 | 0.00 | 0.00 | 32 | 1016.9 |
| 20260504130305 | 76 | 118 | 1.7 | 6.1 | 0.00 | 0.00 | 0.00 | 33 | 1016.9 |
| 20260504120306 | 76 | 189 | 1.7 | 8.7 | 0.00 | 0.00 | 0.00 | 34 | 1017.2 |
| 20260504110303 | 76 | 110 | 2.6 | 7.8 | 0.00 | 0.00 | 0.00 | 36 | 1017.5 |
| 20260504100303 | 73 | 89 | 1.7 | 10.4 | 0.00 | 0.00 | 0.00 | 40 | 1018.2 |
| 20260504081802 | 66 | 68 | 0.0 | 0.0 | 0.00 | 0.00 | 0.00 | 48 | 1019.0 |
| 20260504081303 | 66 | 105 | 0.0 | 0.0 | 0.00 | 0.00 | 0.00 | 49 | 1019.2 |
| 20260504080803 | 64 | 27 | 0.0 | 0.0 | 0.00 | 0.00 | 0.00 | 51 | 1019.2 |
| 20260504070302 | 63 | 38 | 0.0 | 0.0 | 0.00 | 0.00 | 0.00 | 52 | 1019.1 |
| 20260504050304 | 58 | 265 | 0.0 | 0.0 | 0.00 | 0.00 | 0.00 | 62 | 1018.9 |
| 20260504045802 | 57 | 261 | 0.0 | 0.0 | 0.00 | 0.00 | 0.00 | 64 | 1018.7 |
| 20260504045304 | 56 | 251 | 0.0 | 0.0 | 0.00 | 0.00 | 0.00 | 65 | 1018.7 |
| 20260504044804 | 55 | 239 | 0.0 | 0.0 | 0.00 | 0.00 | 0.00 | 67 | 1018.7 |
| 20260504044303 | 55 | 239 | 0.0 | 1.7 | 0.00 | 0.00 | 0.00 | 66 | 1018.5 |
| 20260504043803 | 55 | 239 | 0.0 | 0.0 | 0.00 | 0.00 | 0.00 | 65 | 1018.5 |
| 20260504043303 | 55 | 239 | 0.0 | 0.0 | 0.00 | 0.00 | 0.00 | 65 | 1018.5 |
| 20260504042803 | 55 | 239 | 0.0 | 0.0 | 0.00 | 0.00 | 0.00 | 65 | 1018.4 |
| 20260504042304 | 56 | 239 | 0.0 | 0.0 | 0.00 | 0.00 | 0.00 | 64 | 1018.4 |
| 20260504041802 | 55 | 255 | 0.0 | 0.0 | 0.00 | 0.00 | 0.00 | 63 | 1018.4 |
| 20260504041303 | 55 | 247 | 0.0 | 0.0 | 0.00 | 0.00 | 0.00 | 63 | 1018.4 |
| 20260504040803 | 55 | 256 | 0.0 | 0.0 | 0.00 | 0.00 | 0.00 | 63 | 1018.4 |
| 20260504040309 | 55 | 257 | 0.0 | 0.0 | 0.00 | 0.00 | 0.00 | 62 | 1018.4 |
| 20260504035802 | 55 | 257 | 0.0 | 0.0 | 0.00 | 0.00 | 0.00 | 62 | 1018.4 |
| 20260504035304 | 55 | 257 | 0.0 | 0.0 | 0.00 | 0.00 | 0.00 | 62 | 1018.4 |
| 20260504034803 | 55 | 257 | 0.0 | 0.0 | 0.00 | 0.00 | 0.00 | 61 | 1018.4 |
| 20260504033803 | 55 | 239 | 0.0 | 0.0 | 0.00 | 0.00 | 0.00 | 61 | 1018.4 |
| 20260504033303 | 56 | 239 | 0.0 | 0.0 | 0.00 | 0.00 | 0.00 | 61 | 1018.4 |
| 20260504032802 | 56 | 237 | 0.0 | 0.0 | 0.00 | 0.00 | 0.00 | 61 | 1018.4 |
| 20260504032304 | 56 | 237 | 0.0 | 0.0 | 0.00 | 0.00 | 0.00 | 61 | 1018.4 |
| 20260504031803 | 56 | 238 | 0.0 | 0.0 | 0.00 | 0.00 | 0.00 | 61 | 1018.4 |
| 20260504030803 | 56 | 238 | 0.0 | 0.0 | 0.00 | 0.00 | 0.00 | 60 | 1018.3 |
| 20260504030304 | 56 | 242 | 0.0 | 0.0 | 0.00 | 0.00 | 0.00 | 60 | 1018.3 |
| 20260504025802 | 56 | 244 | 0.0 | 0.0 | 0.00 | 0.00 | 0.00 | 60 | 1018.4 |
| 20260504025304 | 57 | 244 | 0.0 | 0.0 | 0.00 | 0.00 | 0.00 | 59 | 1018.4 |
| 20260504024803 | 57 | 244 | 0.0 | 0.0 | 0.00 | 0.00 | 0.00 | 59 | 1018.4 |
| 20260504024304 | 57 | 244 | 0.0 | 0.0 | 0.00 | 0.00 | 0.00 | 59 | 1018.5 |
| 20260504023802 | 57 | 244 | 0.0 | 0.0 | 0.00 | 0.00 | 0.00 | 59 | 1018.5 |
| 20260504023303 | 57 | 244 | 0.0 | 0.0 | 0.00 | 0.00 | 0.00 | 59 | 1018.5 |
| 20260504022803 | 57 | 244 | 0.0 | 0.0 | 0.00 | 0.00 | 0.00 | 59 | 1018.5 |
| 20260504022304 | 57 | 244 | 0.0 | 0.0 | 0.00 | 0.00 | 0.00 | 58 | 1018.5 |
| 20260504020303 | 57 | 259 | 0.0 | 0.0 | 0.00 | 0.00 | 0.00 | 60 | 1018.5 |
| 20260504015803 | 57 | 259 | 0.0 | 0.0 | 0.00 | 0.00 | 0.00 | 59 | 1018.4 |
| 20260504015304 | 58 | 261 | 0.0 | 0.0 | 0.00 | 0.00 | 0.00 | 57 | 1018.4 |
| 20260504014303 | 58 | 261 | 0.0 | 0.0 | 0.00 | 0.00 | 0.00 | 56 | 1018.4 |
| 20260504013304 | 59 | 261 | 0.0 | 0.0 | 0.00 | 0.00 | 0.00 | 55 | 1018.4 |
| 20260504012803 | 59 | 261 | 0.0 | 0.0 | 0.00 | 0.00 | 0.00 | 54 | 1018.3 |
| 20260504011803 | 59 | 253 | 0.0 | 0.0 | 0.00 | 0.00 | 0.00 | 52 | 1018.3 |
| 20260504011303 | 59 | 263 | 0.0 | 0.0 | 0.00 | 0.00 | 0.00 | 53 | 1018.2 |
| 20260504010803 | 59 | 228 | 0.0 | 0.0 | 0.00 | 0.00 | 0.00 | 54 | 1018.2 |
| 20260504010305 | 59 | 228 | 0.0 | 0.0 | 0.00 | 0.00 | 0.00 | 54 | 1018.2 |
| 20260504005804 | 59 | 228 | 0.0 | 0.0 | 0.00 | 0.00 | 0.00 | 54 | 1018.3 |
| 20260504005304 | 59 | 231 | 0.0 | 0.0 | 0.00 | 0.00 | 0.00 | 55 | 1018.3 |
| 20260504004803 | 59 | 231 | 0.0 | 0.0 | 0.00 | 0.00 | 0.00 | 54 | 1018.3 |
| 20260504004303 | 59 | 231 | 0.0 | 0.0 | 0.00 | 0.00 | 0.00 | 54 | 1018.4 |
| 20260504003803 | 59 | 231 | 0.0 | 0.0 | 0.00 | 0.00 | 0.00 | 53 | 1018.4 |
| 20260504003304 | 59 | 233 | 0.0 | 0.0 | 0.00 | 0.00 | 0.00 | 53 | 1018.4 |
| 20260504002802 | 59 | 233 | 0.0 | 0.0 | 0.00 | 0.00 | 0.00 | 53 | 1018.5 |
| 20260504002304 | 59 | 233 | 0.0 | 0.0 | 0.00 | 0.00 | 0.00 | 53 | 1018.5 |
| 20260504001803 | 59 | 233 | 0.0 | 0.0 | 0.00 | 0.00 | 0.00 | 53 | 1018.5 |
| 20260504001302 | 59 | 233 | 0.0 | 0.0 | 0.00 | 0.00 | 0.00 | 53 | 1018.6 |
| 20260504000803 | 59 | 233 | 0.0 | 0.0 | 0.00 | 0.00 | 0.00 | 52 | 1018.6 |